Terug naar catalogus

COSMOS 1367

LostNavigatieHEO
NORAD 13205·PAYLOAD·🇷🇺 Russia

Gelanceerd May 20, 1982 vanaf Plesetsk Cosmodrome

Loading…

Volgende Passages (komende 24 uur)

TLE

VerouderdSource: Space-Track

Epoch: Oct 31, 2025, 17:49 UTC

1 13205U 82045A   25304.74244421  .00000044  00000-0  00000-0 0  9990
2 13205  71.9842  75.1735 4968098 329.5011   9.1373  2.00464983318233

Volg COSMOS 1367 in realtime met AllMySat

Download on the App Store